Погода в Максатихе

Россия / Тверская область     57°47′36″N   35°52′30″E
темп.,
°C
ветер,
м/с
пор.,
м/с
влажн.,
%
обл.,
%
осадки,
мм/ч
давл.,
гПа
погр.,
м
21 июня, пн
пн2100:00+19юз22862 0.0 101940
03:00+20ююз238528 0.0 101960
06:00+21зюз248820 0.0 1020141
09:00+27зюз11575 0.0 1020582
12:00+30ю2244100 0.0 10191779
15:00+31ю23395 0.0 10192417
18:00+30ю344854 0.0 10181063
21:00+24ююз287277 0.0 1019222
22 июня, вт
вт2200:00+19с118856 0.5 102012
03:00+17ю119196 0.6 102012
06:00+19ююз248834 0.0 102198
09:00+26ю24565 0.0 1020577
12:00+30ю34415 0.0 10201419
15:00+32ю343513 0.0 10191804
18:00+31ю34455 0.0 10181269
21:00+24ю377438 0.0 1019123
23 июня, ср
ср2300:00+21ююз2579100 0.0 101981
03:00+19ююз258285 0.0 102097
06:00+21ююз268291 0.0 1020177
09:00+27ююз345757 0.0 1020527
12:00+32ююз343976 0.0 10201666
15:00+33ююз353110 0.0 10192248
18:00+32ююз35405 0.0 1019585
21:00+24ююз377265 0.0 1019112
24 июня, чт
чт2400:00+21ююз267792 0.0 102096
03:00+20ююз268334 0.0 1020114
06:00+22юз26805 0.0 1019171
09:00+28юз245425 0.0 1019544
12:00+32юз35385 0.0 10182163
15:00+34юз343114 0.0 10172896
18:00+32ю57400 0.0 10151243
21:00+26ююз41261100 0.0 1015384
25 июня, пт
пт2500:00+18всв2298100 1.2 101754
03:00+17зюз2296100 1.2 101729
06:00+18з139413 0.0 1017128
09:00+24зсз236819 0.0 1017600
12:00+29з23508 0.0 10161367
15:00+31з244128 0.0 10152388
18:00+27с25624 0.0 1013194
21:00+19з129699 3.1 101460